Карточка аэропорта URRP

Внимание!
Информация на этой странице в стадии наполнения.
Если вы не увидели какой-то информации, или заметили неточность - пожалуйста сообщите нам!
Спасибо!
Команда RU-STAFF
Название аэропортаПлатов
Название аэропорта (англ.)Platov
Превышение282 ft. (86 m.)
Координаты47°29.634', 39°55.482'
Высота перехода3500 ft
Эшелон переходаFL50 (QNH >= 996); FL60 (QNH < 996)
Коды ответчика1001-1017
Зона ОрВДРостов-на-Дону РПИ (URRV)
Данные METARURRP 300700Z 00000MPS 0450 0200SW PRFG BKN001 15/15 Q1019 R23/CLRD70 NOSIG RMK QBB030 OBST OBSC QFE756/1008
Проноз погоды (TAF)URRP 300557Z 3006/0106 13003G10MPS 0200 FG SCT001 SCT030CB TX25/3012Z TN12/0102Z FM300900 25003G08MPS 6000 SCT016 SCT030CB
NOTAMshow/hide NOTAM
AWOS   TABLE

Информация о ВПП

ВПП Длина ВПП (м.) Покрытие Курс ВПП Частота ILS
053900Цементобетон46111.5
233900Цементобетон226110.9

Диспетчерские позиции

Позывной Наименование органа УВД Частота
URRP_APPПлатов-подход128.2
URRP_DELПлатов-деливери127.1
URRP_GNDПлатов - руление119.0
URRP_R_APPПлатов - Круг121.2
URRP_TWRПлатов-Вышка119.7



Спутниковое изображение